[[{"header":{"parameterUnit":"m.s-1","parameterCategory":2,"la1":30.2991,"la2":30.254,"lo1":-89.0895,"lo2":-89.0444,"dy":0.0017,"dx":0.0017,"nx":28,"ny":28,"refTime":"2024-06-12T03:00:00:Z","depth":"0","parameterNumber":2,"parameterNumberName":"U-component_of_CURRENTS"},"data":[0,0,0,0,0,0,0,0,0,0,0,0,0,0,0,0,0,0,0,0,0,0,0,0,0,0,0,0,0,0,0,0,0,0,0,0,0,0,0,0,0,0,0,0,0,0,0,0,0,0,0,0,0,0,0,0,0,0,0.1471,0.1473,0,0.1644,0.1646,0.1648,0.1729,0.1729,0.173,0.173,0.1671,0.1669,0.1668,0,0,0,0,0,0,0,0,0,0,0,0,0,0.1272,0.1274,0.1471,0.1473,0.1476,0.1644,0.1646,0.1649,0.1729,0.1729,0.173,0.173,0.1671,0.1669,0.1668,0,0,0,0,0,0,0,0,0,0,0,0,0,0.1391,0.1275,0.1471,0.1538,0.1545,0.1644,0.1646,0.1649,0.1729,0.1729,0.173,0.173,0.1672,0.167,0.1667,0.1651,0,0,0.166,0.1659,0,0,0,0,0,0,0,0,0.1384,0.1398,0.1525,0.1533,0.1542,0.1667,0.1555,0.1639,0.1729,0.1658,0.173,0.173,0.1649,0.1649,0.1682,0.1648,0.1646,0.166,0.1658,0.1657,0.1656,0,0,0,0,0,0,0,0.1376,0.1391,0.1538,0.1528,0.1538,0.158,0.1596,0.1572,0.1645,0.1664,0.1671,0.1693,0.1652,0.1684,0.168,0.1645,0.166,0.1658,0.1656,0.1655,0.1563,0.1562,0,0,0,0,0,0,0.1355,0.1383,0.1532,0.1543,0.1464,0.1584,0.1602,0.1625,0.1651,0.1657,0.1693,0.1696,0.1688,0.1683,0.1678,0.1678,0.1657,0.1655,0.1654,0.1564,0.1563,0.1561,0,0,0,0,0,0,0.135,0.1366,0.1526,0.1468,0.1492,0.1587,0.1613,0.1629,0.1655,0.1675,0.1677,0.1701,0.1688,0.1682,0.1662,0.1675,0.1654,0.1652,0.1565,0.1563,0.1562,0.1664,0,0,0,0,0,0,0.1343,0.1364,0.1375,0.1467,0.1494,0.158,0.1613,0.1632,0.167,0.1676,0.1683,0.1679,0.1688,0.1666,0.166,0.1671,0.165,0.1566,0.1564,0.1562,0.1662,0.1666,0.167,0,0,0,0,0,0.1336,0.136,0.1374,0.1393,0.1506,0.158,0.1598,0.1664,0.1669,0.1685,0.1691,0.1678,0.1648,0.1664,0.1657,0.1668,0.1567,0.1565,0.1563,0.166,0.1665,0.1669,0,0,0,0,0,0,0.1291,0.1373,0.1391,0.1441,0.1499,0.1594,0.1626,0.1652,0.1676,0.1671,0.1675,0.1672,0.1658,0.1631,0.1648,0.1627,0.16,0.1596,0.1676,0.1681,0.1685,0.1725,0.1648,0,0,0,0,0,0.1281,0.1316,0.1393,0.1433,0.1458,0.1531,0.1567,0.1606,0.1643,0.1656,0.1665,0.1653,0.1645,0.1638,0.1623,0.1612,0.1723,0.1605,0.1609,0.1613,0.1636,0.191,0.1947,0.1554,0.1554,0.1554,0,0,0.1276,0.1326,0.1347,0.1424,0.1476,0.1524,0.1553,0.1606,0.1639,0.1637,0.1669,0.1662,0.164,0.1648,0.1636,0.1629,0.1764,0.161,0.1615,0.1636,0.1913,0.1953,0.1989,0.1552,0.1553,0.1553,0,0,0.1296,0.1324,0.1362,0.1402,0.1473,0.1515,0.152,0.1598,0.1624,0.1645,0.1657,0.1677,0.1641,0.1677,0.1674,0.1678,0.1775,0.1635,0.1703,0.1969,0.2008,0.2043,0.2188,0.2235,0.1644,0.1644,0.1645,0,0.1286,0.1351,0.1384,0.1429,0.147,0.1503,0.155,0.1579,0.164,0.1673,0.165,0.1702,0.1672,0.1737,0.1732,0.1698,0.1837,0.17,0.199,0.2027,0.2062,0.2202,0.2254,0.1649,0.1649,0.1648,0.1648,0,0.1343,0.1386,0.1411,0.1475,0.1509,0.1556,0.1596,0.1626,0.1642,0.1689,0.1748,0.1761,0.1806,0.1783,0.1752,0.1942,0.1953,0.1976,0.201,0.2111,0.2247,0.2299,0.1656,0.1654,0.1653,0.1651,0,0,0.1365,0.1437,0.145,0.1486,0.1538,0.1582,0.1614,0.1688,0.1744,0.1782,0.1894,0.1879,0.1918,0.1916,0.1913,0.211,0.2427,0.2143,0.2155,0.2338,0.2982,0.289,0.2937,0.2558,0.2568,0.2576,0.2965,0,0.1411,0.1497,0.1518,0.159,0.1639,0.1661,0.1702,0.1756,0.1798,0.1903,0.1954,0.2032,0.1957,0.2007,0.2191,0.2378,0.2577,0.2315,0.2808,0.282,0.2777,0.3,0.2932,0.3268,0.3017,0.3025,0.3032,0,0.1482,0.1529,0.1607,0.1673,0.1696,0.1731,0.1824,0.1866,0.1981,0.2018,0.2122,0.2171,0.2371,0.2329,0.2762,0.2619,0.2799,0.2949,0.2971,0.2897,0.283,0.313,0.3373,0.3245,0.3113,0.3106,0.31,0,0.1523,0.1598,0.1663,0.1686,0.1756,0.1793,0.1832,0.1916,0.1974,0.2127,0.2223,0.2424,0.2578,0.2871,0.3059,0.2997,0.357,0.3533,0.3612,0.3602,0.364,0.3617,0.3872,0.3911,0.391,0.3909,0.3908,0,0.1586,0.1643,0.1687,0.1729,0.1804,0.1835,0.1929,0.1982,0.2101,0.2221,0.2304,0.2469,0.2755,0.304,0.3211,0.3559,0.3709,0.369,0.3754,0.3653,0.3628,0.3585,0.3501,0.3923,0.392,0.3917,0.3915,0,0.1636,0.1673,0.1744,0.1808,0.183,0.1885,0.1966,0.204,0.2147,0.2327,0.2397,0.2628,0.2999,0.3222,0.3703,0.3765,0.3999,0.4153,0.3926,0.3955,0.3862,0.3783,0.3941,0.3856,0.4369,0.437,0.4371,0,0.167,0.1712,0.1786,0.1819,0.1848,0.1919,0.1975,0.2057,0.2144,0.2422,0.254,0.2893,0.3126,0.3694,0.3923,0.4251,0.4085,0.4319,0.4175,0.391,0.3875,0.362,0.3517,0.4254,0.4254,0.4254,0.4254,0,0.1711,0.1737,0.179,0.1859,0.1914,0.1977,0.2068,0.2141,0.2288,0.2445,0.2726,0.2941,0.3432,0.3737,0.4071,0.4249,0.4096,0.432,0.4211,0.3954,0.3549,0.3475,0.383,0.4252,0.4252,0.4252,0.4252,0.4252,0.173,0.1769,0.1831,0.1899,0.1957,0.2039,0.2091,0.2201,0.2348,0.257,0.2796,0.3066,0.3509,0.3988,0.4098,0.421,0.413,0.417,0.4144,0.394,0.3718,0.3972,0.4338,0.4338,0.4339,0.4339,0.434,0,0.1771,0.1811,0.1861,0.1947,0.2008,0.2042,0.2157,0.2198,0.2351,0.2558,0.2771,0.3193,0.3526,0.382,0.414,0.407,0.3873,0.3961,0.3644,0.3593,0.4036,0.3882,0.3966,0.3966,0.3966,0.3966,0.3966,0.3966,0.18,0.1865,0.1893,0.1978,0.2033,0.2102,0.2161,0.2209,0.232,0.2512,0.2695,0.2918,0.3362,0.3802,0.3917,0.3864,0.3586,0.3436,0.3369,0.3707,0.3722,0.3736,0.3573,0.3591,0.359,0.2801,0.2796,0.2791]},{"header":{"parameterUnit":"m.s-1","parameterCategory":2,"la1":30.2991,"la2":30.254,"lo1":-89.0895,"lo2":-89.0444,"dy":0.0017,"dx":0.0017,"nx":28,"ny":28,"refTime":"2024-06-12T03:00:00:Z","depth":"0","parameterNumber":3,"parameterNumberName":"V-component_of_CURRENTS"},"data":[0,0,0,0,0,0,0,0,0,0,0,0,0,0,0,0,0,0,0,0,0,0,0,0,0,0,0,0,0,0,0,0,0,0,0,0,0,0,0,0,0,0,0,0,0,0,0,0,0,0,0,0,0,0,0,0,0,0,-0.068,-0.0681,0,-0.0777,-0.0778,-0.0779,-0.0763,-0.0762,-0.076,-0.0758,-0.0738,-0.0739,-0.074,0,0,0,0,0,0,0,0,0,0,0,0,0,-0.0567,-0.0569,-0.068,-0.0681,-0.0682,-0.0777,-0.0778,-0.078,-0.0764,-0.0762,-0.076,-0.0758,-0.0738,-0.0739,-0.074,0,0,0,0,0,0,0,0,0,0,0,0,0,-0.0635,-0.0569,-0.0679,-0.0686,-0.0687,-0.0777,-0.0778,-0.078,-0.0764,-0.0762,-0.0759,-0.0757,-0.0737,-0.0739,-0.074,-0.08,0,0,-0.0745,-0.0746,0,0,0,0,0,0,0,0,-0.0631,-0.0639,-0.0684,-0.0685,-0.0687,-0.0756,-0.0731,-0.0781,-0.0765,-0.0735,-0.0758,-0.0755,-0.0735,-0.0737,-0.0762,-0.0799,-0.0798,-0.0745,-0.0746,-0.0747,-0.0747,0,0,0,0,0,0,0,-0.0626,-0.0635,-0.0718,-0.0685,-0.0687,-0.0714,-0.072,-0.0742,-0.0745,-0.0737,-0.0736,-0.0748,-0.0735,-0.0761,-0.0761,-0.0798,-0.0745,-0.0747,-0.0747,-0.0748,-0.0778,-0.0778,0,0,0,0,0,0,-0.0613,-0.0631,-0.0715,-0.0721,-0.0653,-0.0717,-0.0724,-0.0736,-0.0748,-0.0748,-0.075,-0.0747,-0.0759,-0.0759,-0.076,-0.0766,-0.0747,-0.0748,-0.0749,-0.0778,-0.0778,-0.0778,0,0,0,0,0,0,-0.0611,-0.062,-0.0711,-0.0678,-0.0691,-0.0721,-0.0735,-0.0739,-0.0758,-0.0759,-0.0756,-0.0764,-0.0757,-0.0758,-0.0776,-0.0766,-0.0749,-0.075,-0.0778,-0.0778,-0.0778,-0.0818,0,0,0,0,0,0,-0.0607,-0.0618,-0.063,-0.0677,-0.0693,-0.0767,-0.0738,-0.0743,-0.077,-0.0767,-0.077,-0.0766,-0.0755,-0.0774,-0.0778,-0.0768,-0.0751,-0.0778,-0.0778,-0.0778,-0.0817,-0.0819,-0.0821,0,0,0,0,0,-0.0603,-0.0632,-0.063,-0.0641,-0.0705,-0.0769,-0.0781,-0.0793,-0.0773,-0.0797,-0.0789,-0.0766,-0.0773,-0.0777,-0.0781,-0.0771,-0.0779,-0.0778,-0.0778,-0.0816,-0.0819,-0.0821,0,0,0,0,0,0,-0.0587,-0.0634,-0.0633,-0.0673,-0.0717,-0.0766,-0.0796,-0.08,-0.082,-0.0809,-0.0792,-0.079,-0.0798,-0.0785,-0.0789,-0.0775,-0.0761,-0.0762,-0.0788,-0.0791,-0.0793,-0.0712,-0.0753,0,0,0,0,0,-0.059,-0.0625,-0.0669,-0.0703,-0.0725,-0.0761,-0.0788,-0.0799,-0.0822,-0.0828,-0.0829,-0.0815,-0.0806,-0.0798,-0.0803,-0.0815,-0.0689,-0.08,-0.0802,-0.0805,-0.0739,-0.0491,-0.0462,-0.0777,-0.0777,-0.0777,0,0,-0.0592,-0.0626,-0.0643,-0.0703,-0.0737,-0.0776,-0.0771,-0.0822,-0.0838,-0.0823,-0.0847,-0.0841,-0.0815,-0.082,-0.0819,-0.0803,-0.0674,-0.0804,-0.0806,-0.0737,-0.0487,-0.0455,-0.0427,-0.0777,-0.0777,-0.0777,0,0,-0.0621,-0.0646,-0.0682,-0.0722,-0.0778,-0.0802,-0.0813,-0.0865,-0.087,-0.0908,-0.0877,-0.0839,-0.0882,-0.0818,-0.0798,-0.0809,-0.0703,-0.0839,-0.0774,-0.0538,-0.0507,-0.0478,-0.0377,-0.0338,-0.0827,-0.0827,-0.0827,0,-0.0616,-0.0659,-0.0705,-0.075,-0.0769,-0.0807,-0.0834,-0.0867,-0.0913,-0.0881,-0.0915,-0.0846,-0.0852,-0.0755,-0.0773,-0.0805,-0.0695,-0.0776,-0.0532,-0.0501,-0.047,-0.0372,-0.0329,-0.0829,-0.0829,-0.0828,-0.0828,0,-0.0669,-0.0698,-0.0728,-0.0781,-0.0818,-0.0855,-0.0892,-0.0914,-0.0923,-0.091,-0.0845,-0.0831,-0.0748,-0.0774,-0.0793,-0.0599,-0.0607,-0.0572,-0.0514,-0.0439,-0.0345,-0.0299,-0.0831,-0.0831,-0.083,-0.083,0,0,-0.0651,-0.0739,-0.0745,-0.0749,-0.0825,-0.0848,-0.0882,-0.0874,-0.0811,-0.0847,-0.0717,-0.0732,-0.0666,-0.0632,-0.0618,-0.0444,-0.0216,-0.0429,-0.0415,-0.031,0.0236,0.0092,0.0128,-0.0122,-0.0112,-0.0104,0.0181,0,-0.0661,-0.0719,-0.0766,-0.0793,-0.0811,-0.0844,-0.0849,-0.0844,-0.0814,-0.071,-0.0636,-0.0534,-0.0629,-0.0554,-0.0403,-0.021,-0.008,-0.0301,0.0136,0.0147,0.0031,0.0185,0.0132,0.0375,0.0226,0.0234,0.024,0,-0.0681,-0.0708,-0.0738,-0.0744,-0.075,-0.0766,-0.0705,-0.0715,-0.06,-0.0555,-0.0426,-0.0358,-0.0142,-0.0218,0.0159,0.0029,0.012,0.0235,0.0251,0.0193,0.0096,0.0297,0.0465,0.021,0.0311,0.0306,0.03,0,-0.062,-0.0673,-0.0678,-0.0695,-0.0725,-0.0708,-0.0707,-0.0642,-0.0573,-0.0401,-0.0259,-0.0065,0.0143,0.0319,0.0455,0.0368,0.0883,0.0806,0.0738,0.0722,0.0809,0.0785,0.0823,0.1081,0.108,0.108,0.1079,0,-0.06,-0.0599,-0.0639,-0.0641,-0.0592,-0.0637,-0.0534,-0.0512,-0.0369,-0.0173,-0.0135,0.0123,0.0317,0.0573,0.0615,0.0833,0.1018,0.0814,0.0845,0.0769,0.074,0.0625,0.0463,0.109,0.1088,0.1086,0.1084,0,-0.0543,-0.0583,-0.0572,-0.0579,-0.0569,-0.0529,-0.0451,-0.0343,-0.024,0.0046,0.0129,0.0401,0.0752,0.0845,0.1203,0.1092,0.1135,0.1254,0.1059,0.1059,0.0674,0.0512,0.0726,0.0577,0.1263,0.1262,0.1261,0,-0.0519,-0.0517,-0.0509,-0.0466,-0.0464,-0.0406,-0.0337,-0.0283,-0.0123,0.0249,0.0452,0.0811,0.1145,0.1487,0.1398,0.1443,0.1215,0.1286,0.1096,0.0701,0.0549,0.0474,0.0326,0.1163,0.1161,0.116,0.1159,0,-0.0443,-0.0447,-0.0429,-0.0345,-0.0276,-0.0189,-0.0062,0.0089,0.0263,0.0552,0.1029,0.1325,0.1568,0.1674,0.1567,0.1509,0.1044,0.1251,0.1012,0.0621,0.0404,0.0254,0.0801,0.1147,0.1148,0.1149,0.115,0.115,-0.0357,-0.0311,-0.0266,-0.0175,-0.0097,0.0089,0.0273,0.0478,0.0807,0.1317,0.1474,0.1962,0.186,0.1773,0.1539,0.0966,0.1006,0.0777,0.0656,0.0651,0.0384,0.0793,0.1045,0.1046,0.1046,0.1047,0.1047,0,-0.019,-0.0147,-0.0075,0.0072,0.0229,0.0227,0.0519,0.0778,0.1274,0.1658,0.2083,0.2325,0.2037,0.1646,0.0909,0.0457,0.0296,0.0216,0.0124,0.003,0.0587,0.0442,0.0373,0.0373,0.0373,0.0373,0.0374,0.0374,-0.008,0.0041,0.0077,0.0368,0.0492,0.0811,0.1036,0.1394,0.1718,0.2312,0.2626,0.2841,0.2624,0.1241,0.0222,-0.0075,-0.0437,-0.0445,-0.0627,-0.0295,-0.0252,-0.0212,-0.0385,-0.0627,-0.0628,-0.1137,-0.1143,-0.1147]}],[{"header":{"parameterUnit":"m.s-1","parameterCategory":2,"la1":30.2991,"la2":30.254,"lo1":-89.0895,"lo2":-89.0444,"dy":0.0017,"dx":0.0017,"nx":28,"ny":28,"refTime":"2024-06-12T03:00:00:Z","depth":"2","parameterNumber":2,"parameterNumberName":"U-component_of_CURRENTS"},"data":[0,0,0,0,0,0,0,0,0,0,0,0,0,0,0,0,0,0,0,0,0,0,0,0,0,0,0,0,0,0,0,0,0,0,0,0,0,0,0,0,0,0,0,0,0,0,0,0,0,0,0,0,0,0,0,0,0,0,0.1349,0.135,0,0.1356,0.1356,0.1356,0.1321,0.1321,0.132,0.132,0.1338,0.1339,0.134,0,0,0,0,0,0,0,0,0,0,0,0,0,0.1259,0.1261,0.1349,0.135,0.135,0.1357,0.1356,0.1356,0.1322,0.1321,0.132,0.132,0.1338,0.1339,0.134,0,0,0,0,0,0,0,0,0,0,0,0,0,0.128,0.1261,0.1349,0.1338,0.1338,0.1357,0.1356,0.1356,0.1322,0.1321,0.132,0.132,0.1338,0.1339,0.1341,0.1364,0,0,0.1345,0.1345,0,0,0,0,0,0,0,0,0.1279,0.1283,0.1339,0.1339,0.1338,0.1342,0.1331,0.1361,0.1322,0.1322,0.132,0.1319,0.1345,0.1346,0.1341,0.1365,0.1365,0.1345,0.1346,0.1346,0.1347,0,0,0,0,0,0,0,0.1278,0.1282,0.1346,0.134,0.134,0.1318,0.132,0.1336,0.1333,0.1322,0.1321,0.1331,0.1344,0.1339,0.1341,0.1366,0.1345,0.1346,0.1347,0.1348,0.147,0.1472,0,0,0,0,0,0,0.1292,0.1282,0.1346,0.1347,0.1313,0.132,0.1322,0.1337,0.1333,0.1333,0.1331,0.1329,0.1337,0.1339,0.1342,0.1397,0.1346,0.1348,0.1349,0.1468,0.1471,0.1473,0,0,0,0,0,0,0.129,0.1298,0.1346,0.1318,0.1323,0.1324,0.134,0.1338,0.1337,0.1341,0.134,0.1334,0.1337,0.134,0.136,0.1397,0.1348,0.135,0.1465,0.1469,0.1472,0.1491,0,0,0,0,0,0,0.1287,0.1297,0.1309,0.132,0.1326,0.1365,0.1341,0.1339,0.1347,0.1344,0.1343,0.1343,0.1336,0.1358,0.1361,0.1398,0.1351,0.1462,0.1466,0.1471,0.1487,0.1495,0.1501,0,0,0,0,0,0.1284,0.1311,0.131,0.1318,0.1344,0.1367,0.1367,0.136,0.1348,0.1354,0.1351,0.1344,0.139,0.136,0.1364,0.1401,0.146,0.1465,0.147,0.1484,0.1493,0.1501,0,0,0,0,0,0,0.1274,0.1311,0.1309,0.1344,0.1357,0.1363,0.1376,0.1368,0.1369,0.1367,0.1358,0.1359,0.1397,0.1403,0.137,0.1456,0.1431,0.1438,0.1441,0.145,0.1456,0.1467,0.1352,0,0,0,0,0,0.1281,0.131,0.1333,0.1358,0.1372,0.1373,0.1381,0.1378,0.1384,0.1382,0.1377,0.1393,0.1424,0.1435,0.1456,0.1493,0.1532,0.1529,0.1536,0.1541,0.1557,0.1645,0.1661,0.1491,0.1491,0.1491,0,0,0.1282,0.1309,0.1322,0.1358,0.1369,0.1387,0.1375,0.1397,0.1404,0.1388,0.1393,0.1411,0.144,0.148,0.15,0.1486,0.1613,0.1548,0.1552,0.1565,0.1653,0.1669,0.1684,0.1495,0.1494,0.1493,0,0,0.1309,0.1327,0.1363,0.1377,0.1407,0.1406,0.1416,0.1424,0.1423,0.1436,0.144,0.1481,0.1498,0.1536,0.1559,0.1624,0.1646,0.1636,0.1676,0.1761,0.1776,0.1789,0.1863,0.1883,0.1639,0.1639,0.1639,0,0.1307,0.1355,0.1373,0.1407,0.142,0.1416,0.1443,0.1444,0.145,0.1468,0.1442,0.1521,0.1533,0.1619,0.1636,0.164,0.1685,0.1631,0.1769,0.1783,0.1796,0.1869,0.1891,0.1641,0.1641,0.164,0.164,0,0.1359,0.139,0.1413,0.1449,0.1463,0.1488,0.1496,0.1502,0.1495,0.1504,0.157,0.1593,0.165,0.1666,0.1662,0.1775,0.1777,0.1763,0.174,0.1814,0.1887,0.1909,0.1643,0.1642,0.1642,0.1642,0,0,0.1375,0.1437,0.1444,0.1467,0.1488,0.1508,0.1525,0.1557,0.1592,0.1597,0.1658,0.171,0.1735,0.1766,0.1788,0.1853,0.1975,0.1844,0.1847,0.1905,0.2165,0.2117,0.2136,0.198,0.1983,0.1987,0.218,0,0.1408,0.1476,0.1494,0.1536,0.1568,0.1567,0.1586,0.1611,0.1633,0.1684,0.1734,0.1802,0.1772,0.182,0.1879,0.1958,0.2033,0.1924,0.2098,0.2103,0.204,0.216,0.1953,0.2103,0.2201,0.2205,0.2207,0,0.1455,0.1496,0.155,0.1594,0.1609,0.1625,0.1673,0.1693,0.1759,0.1785,0.1858,0.1894,0.2005,0.1962,0.2135,0.2065,0.2124,0.217,0.2178,0.2142,0.2096,0.2047,0.2139,0.2244,0.2241,0.2238,0.2236,0,0.1471,0.1533,0.1577,0.159,0.1636,0.166,0.168,0.1733,0.1776,0.1872,0.1932,0.2036,0.2126,0.2203,0.2285,0.2226,0.247,0.2403,0.2421,0.2418,0.2282,0.226,0.2542,0.2542,0.2542,0.2541,0.2541,0,0.1501,0.1537,0.1591,0.1617,0.1668,0.1691,0.1759,0.1789,0.1872,0.1958,0.2,0.2116,0.2194,0.2322,0.2356,0.2474,0.2541,0.2466,0.248,0.2283,0.226,0.2404,0.2385,0.2548,0.2547,0.2545,0.2544,0,0.1511,0.1546,0.1603,0.1663,0.168,0.1718,0.1791,0.1845,0.1922,0.2042,0.2085,0.2227,0.2404,0.2477,0.2643,0.2592,0.2688,0.2712,0.2469,0.245,0.2553,0.2534,0.2745,0.2746,0.2746,0.2746,0.2746,0,0.152,0.1553,0.1629,0.1659,0.1688,0.1748,0.1784,0.1857,0.1924,0.2122,0.2189,0.2399,0.2545,0.275,0.2711,0.2777,0.2812,0.26,0.244,0.2591,0.2583,0.2563,0.2543,0.2276,0.2272,0.2269,0.2267,0,0.1535,0.1564,0.1607,0.1676,0.1723,0.1778,0.1848,0.1905,0.2016,0.2146,0.2361,0.2506,0.267,0.2654,0.2692,0.2677,0.2554,0.2539,0.2816,0.224,0.2159,0.2147,0.2142,0.224,0.2242,0.2244,0.2246,0.2247,0.1537,0.1569,0.163,0.169,0.1741,0.1803,0.184,0.1934,0.2061,0.2163,0.235,0.2446,0.248,0.2433,0.2407,0.2339,0.2488,0.2342,0.2347,0.2356,0.2251,0.2173,0.2238,0.224,0.2242,0.2244,0.2246,0,0.1545,0.159,0.1638,0.1706,0.1741,0.1793,0.1872,0.1881,0.201,0.2068,0.2187,0.2022,0.2057,0.2119,0.198,0.1966,0.1885,0.1895,0.1778,0.1809,0.1836,0.1697,0.1541,0.1538,0.1536,0.1534,0,0,0.1554,0.1603,0.1629,0.1686,0.1734,0.1764,0.1804,0.1827,0.1845,0.1791,0.1768,0.1836,0.2018,0.1701,0.1694,0.1619,0.1679,0.1546,0.2118,0.201,0.2032,0.2112,0.1938,0,0,0,0,0]},{"header":{"parameterUnit":"m.s-1","parameterCategory":2,"la1":30.2991,"la2":30.254,"lo1":-89.0895,"lo2":-89.0444,"dy":0.0017,"dx":0.0017,"nx":28,"ny":28,"refTime":"2024-06-12T03:00:00:Z","depth":"2","parameterNumber":3,"parameterNumberName":"V-component_of_CURRENTS"},"data":[0,0,0,0,0,0,0,0,0,0,0,0,0,0,0,0,0,0,0,0,0,0,0,0,0,0,0,0,0,0,0,0,0,0,0,0,0,0,0,0,0,0,0,0,0,0,0,0,0,0,0,0,0,0,0,0,0,0,-0.0601,-0.06,0,-0.0621,-0.0621,-0.0622,-0.0667,-0.0667,-0.0667,-0.0668,-0.0712,-0.0713,-0.0713,0,0,0,0,0,0,0,0,0,0,0,0,0,-0.0554,-0.0555,-0.0601,-0.06,-0.06,-0.062,-0.0621,-0.0622,-0.0666,-0.0667,-0.0668,-0.0668,-0.0712,-0.0713,-0.0714,0,0,0,0,0,0,0,0,0,0,0,0,0,-0.0579,-0.0556,-0.0601,-0.0621,-0.0623,-0.062,-0.0621,-0.0622,-0.0666,-0.0667,-0.0668,-0.0668,-0.0711,-0.0713,-0.0714,-0.0707,0,0,-0.0717,-0.0718,0,0,0,0,0,0,0,0,-0.0578,-0.0581,-0.0618,-0.062,-0.0621,-0.0637,-0.0621,-0.065,-0.0666,-0.0655,-0.0668,-0.0669,-0.0685,-0.0689,-0.0698,-0.0709,-0.0711,-0.0717,-0.0718,-0.0718,-0.0719,0,0,0,0,0,0,0,-0.0576,-0.058,-0.0614,-0.0618,-0.062,-0.0613,-0.0618,-0.0627,-0.0671,-0.0656,-0.0658,-0.0652,-0.0687,-0.0697,-0.0699,-0.0711,-0.0717,-0.0718,-0.0719,-0.0719,-0.0749,-0.0749,0,0,0,0,0,0,-0.0565,-0.0579,-0.0613,-0.0614,-0.0595,-0.0613,-0.0619,-0.0636,-0.067,-0.0674,-0.0652,-0.0654,-0.0694,-0.0698,-0.0701,-0.0714,-0.0718,-0.0719,-0.072,-0.0749,-0.0749,-0.0749,0,0,0,0,0,0,-0.0565,-0.0569,-0.0612,-0.0591,-0.0596,-0.0613,-0.0631,-0.0636,-0.0655,-0.0665,-0.0671,-0.0667,-0.0695,-0.0699,-0.0724,-0.0715,-0.072,-0.0721,-0.0749,-0.0749,-0.0749,-0.0728,0,0,0,0,0,0,-0.0564,-0.0569,-0.0578,-0.0591,-0.0596,-0.0608,-0.063,-0.0635,-0.0647,-0.0652,-0.068,-0.0685,-0.0696,-0.0722,-0.0725,-0.0717,-0.0722,-0.0749,-0.0749,-0.0749,-0.0728,-0.0727,-0.0726,0,0,0,0,0,-0.0562,-0.0564,-0.0579,-0.0583,-0.0609,-0.0607,-0.061,-0.0627,-0.0647,-0.065,-0.0682,-0.0684,-0.0725,-0.0724,-0.0727,-0.0719,-0.0748,-0.0749,-0.0749,-0.0729,-0.0727,-0.0726,0,0,0,0,0,0,-0.0545,-0.0569,-0.0586,-0.0596,-0.0601,-0.0613,-0.061,-0.063,-0.0657,-0.0668,-0.0691,-0.0697,-0.0716,-0.0722,-0.072,-0.0729,-0.0735,-0.0736,-0.0718,-0.0717,-0.0716,-0.0703,-0.0723,0,0,0,0,0,-0.0546,-0.056,-0.0574,-0.0581,-0.0582,-0.0602,-0.0605,-0.062,-0.064,-0.0654,-0.0681,-0.0703,-0.0716,-0.0722,-0.0739,-0.0742,-0.0742,-0.0738,-0.0737,-0.0736,-0.0729,-0.072,-0.0717,-0.075,-0.075,-0.075,0,0,-0.0541,-0.0553,-0.0563,-0.0578,-0.0586,-0.0582,-0.0607,-0.0611,-0.0617,-0.0653,-0.068,-0.0705,-0.0719,-0.0729,-0.0736,-0.0734,-0.0729,-0.0736,-0.0735,-0.0728,-0.072,-0.0716,-0.0713,-0.075,-0.075,-0.075,0,0,-0.0518,-0.055,-0.0545,-0.0551,-0.0557,-0.0569,-0.0572,-0.0597,-0.0617,-0.0642,-0.0669,-0.0691,-0.0719,-0.0722,-0.0726,-0.0727,-0.0729,-0.0734,-0.0711,-0.0702,-0.0699,-0.0696,-0.0699,-0.0696,-0.0726,-0.0726,-0.0726,0,-0.0512,-0.0514,-0.054,-0.053,-0.053,-0.0563,-0.0553,-0.0572,-0.0608,-0.0621,-0.0648,-0.0689,-0.0709,-0.0701,-0.0711,-0.0722,-0.0725,-0.0713,-0.0699,-0.0696,-0.0694,-0.0697,-0.0695,-0.0725,-0.0725,-0.0725,-0.0725,0,-0.0478,-0.0484,-0.0477,-0.0486,-0.049,-0.0488,-0.0511,-0.0531,-0.0568,-0.0592,-0.0617,-0.065,-0.067,-0.0679,-0.07,-0.0687,-0.0699,-0.0704,-0.0699,-0.0689,-0.0694,-0.0692,-0.0724,-0.0724,-0.0724,-0.0725,0,0,-0.0466,-0.0457,-0.0458,-0.0451,-0.0472,-0.0468,-0.0479,-0.0493,-0.0499,-0.0546,-0.0546,-0.0589,-0.062,-0.0627,-0.0649,-0.0646,-0.0644,-0.067,-0.067,-0.0666,-0.0635,-0.0619,-0.0615,-0.0647,-0.0647,-0.0646,-0.0649,0,-0.0435,-0.04,-0.0415,-0.0395,-0.038,-0.0416,-0.042,-0.0443,-0.0476,-0.0488,-0.0521,-0.0538,-0.0593,-0.0602,-0.0611,-0.0629,-0.0636,-0.0644,-0.0651,-0.0651,-0.0632,-0.0611,-0.0591,-0.0589,-0.0646,-0.0646,-0.0646,0,-0.0403,-0.0383,-0.0352,-0.0345,-0.0344,-0.0349,-0.0363,-0.0372,-0.0399,-0.0423,-0.0448,-0.0479,-0.049,-0.0535,-0.0562,-0.0566,-0.0607,-0.0624,-0.0625,-0.0612,-0.0629,-0.0607,-0.0582,-0.0642,-0.0642,-0.0643,-0.0643,0,-0.0368,-0.0346,-0.032,-0.0318,-0.0315,-0.0321,-0.0333,-0.0361,-0.0358,-0.0382,-0.0371,-0.041,-0.0404,-0.0457,-0.0515,-0.054,-0.0533,-0.0568,-0.0592,-0.0592,-0.0576,-0.0575,-0.059,-0.059,-0.059,-0.059,-0.059,0,-0.033,-0.0311,-0.0305,-0.0289,-0.0265,-0.0291,-0.0282,-0.0298,-0.0306,-0.0272,-0.0338,-0.0295,-0.0383,-0.0394,-0.0475,-0.0513,-0.0505,-0.0579,-0.0584,-0.057,-0.0568,-0.0616,-0.0619,-0.059,-0.059,-0.059,-0.059,0,-0.0292,-0.0287,-0.0252,-0.0245,-0.0245,-0.0235,-0.0238,-0.0221,-0.0245,-0.0192,-0.0189,-0.0198,-0.0199,-0.0285,-0.0344,-0.0437,-0.0491,-0.0513,-0.0497,-0.0499,-0.0575,-0.0577,-0.0546,-0.0545,-0.0545,-0.0544,-0.0544,0,-0.0264,-0.0242,-0.0214,-0.0188,-0.0188,-0.018,-0.0164,-0.0189,-0.0158,-0.0112,-0.0059,-0.0051,0.0019,-0.0071,-0.0243,-0.0366,-0.0418,-0.0464,-0.0511,-0.0559,-0.0567,-0.057,-0.0572,-0.0492,-0.0491,-0.0491,-0.049,0,-0.0209,-0.0207,-0.017,-0.0121,-0.0099,-0.0057,-0.0037,0.0004,0.0008,0.009,0.0214,0.0281,0.0183,0.0096,-0.0115,-0.0228,-0.0446,-0.0453,-0.0484,-0.0503,-0.0507,-0.0515,-0.052,-0.0484,-0.0485,-0.0485,-0.0485,-0.0486,-0.0171,-0.0135,-0.0095,-0.0054,-0.0007,0.0066,0.0114,0.0191,0.03,0.0455,0.0471,0.0595,0.0371,0.0173,-0.005,-0.0339,-0.0352,-0.0464,-0.0467,-0.047,-0.0459,-0.0461,-0.0429,-0.0429,-0.0429,-0.043,-0.043,0,-0.0129,-0.0095,-0.0033,0.003,0.0097,0.0102,0.0205,0.0309,0.0491,0.0658,0.0815,0.0695,0.0565,0.0292,-0.0112,-0.0349,-0.0398,-0.0432,-0.0445,-0.0449,-0.0454,-0.0443,-0.0409,-0.0409,-0.0409,-0.041,0,0,-0.0103,-0.0047,-0.0022,0.0092,0.0146,0.0255,0.0326,0.0548,0.0698,0.0932,0.1006,0.1057,0.0684,0.0405,0.0064,-0.0163,-0.025,-0.0215,-0.0211,-0.0191,-0.0191,-0.0456,-0.0442,0,0,0,0,0]}],[{"header":{"parameterUnit":"m.s-1","parameterCategory":2,"la1":30.2991,"la2":30.254,"lo1":-89.0895,"lo2":-89.0444,"dy":0.0017,"dx":0.0017,"nx":28,"ny":28,"refTime":"2024-06-12T03:00:00:Z","depth":"4","parameterNumber":2,"parameterNumberName":"U-component_of_CURRENTS"},"data":[0,0,0,0,0,0,0,0,0,0,0,0,0,0,0,0,0,0,0,0,0,0,0,0,0,0,0,0,0,0,0,0,0,0,0,0,0,0,0,0,0,0,0,0,0,0,0,0,0,0,0,0,0,0,0,0,0,0,0.0402,0.0401,0,0.0336,0.0336,0.0335,0.0332,0.0332,0.0333,0.0333,0.0488,0.0492,0.0496,0,0,0,0,0,0,0,0,0,0,0,0,0,0.0475,0.0475,0.0402,0.0401,0.04,0.0336,0.0336,0.0335,0.0332,0.0332,0.0333,0.0333,0.0487,0.0491,0.0496,0,0,0,0,0,0,0,0,0,0,0,0,0,0.0433,0.0474,0.0403,0.0389,0.0386,0.0336,0.0336,0.0335,0.0331,0.0332,0.0333,0.0334,0.0486,0.0491,0.0497,0.0516,0,0,0.0513,0.0516,0,0,0,0,0,0,0,0,0.0435,0.0431,0.0392,0.0389,0.0387,0.034,0.0418,0.0405,0.0331,0.0355,0.0333,0.0334,0.0457,0.0465,0.0452,0.0523,0.053,0.0514,0.0517,0.052,0.0521,0,0,0,0,0,0,0,0.0438,0.0433,0.0379,0.039,0.0387,0.0368,0.0364,0.0415,0.0409,0.0353,0.0352,0.034,0.0458,0.0446,0.0456,0.0532,0.0514,0.0519,0.0522,0.0524,0.0699,0.07,0,0,0,0,0,0,0.0442,0.0436,0.0381,0.0377,0.041,0.0366,0.0361,0.0357,0.0404,0.0409,0.0339,0.034,0.0436,0.045,0.0462,0.061,0.052,0.0525,0.0528,0.0698,0.0699,0.0701,0,0,0,0,0,0,0.0444,0.0438,0.0384,0.0402,0.0394,0.0364,0.0359,0.0355,0.0375,0.039,0.04,0.0367,0.0438,0.0454,0.0551,0.0612,0.0527,0.0532,0.0696,0.0698,0.07,0.0829,0,0,0,0,0,0,0.0447,0.044,0.0442,0.0403,0.0393,0.0362,0.0358,0.0353,0.0363,0.0364,0.0417,0.0429,0.0439,0.0543,0.0557,0.0618,0.0536,0.0695,0.0697,0.07,0.0823,0.0835,0.0845,0,0,0,0,0,0.045,0.0437,0.0443,0.0436,0.0396,0.0361,0.0355,0.0338,0.0364,0.0364,0.0429,0.0429,0.0567,0.055,0.0565,0.0629,0.0693,0.0696,0.0699,0.0818,0.0833,0.0845,0,0,0,0,0,0,0.046,0.0435,0.044,0.0419,0.04,0.036,0.0353,0.0361,0.0405,0.0431,0.0467,0.0484,0.0583,0.0583,0.0562,0.0678,0.0622,0.0629,0.0707,0.0721,0.0732,0.0734,0.0541,0,0,0,0,0,0.0467,0.0458,0.0432,0.0417,0.0414,0.04,0.039,0.0386,0.041,0.0428,0.0485,0.054,0.0598,0.0644,0.068,0.0764,0.0739,0.0804,0.0815,0.0825,0.0833,0.0846,0.086,0.0711,0.0711,0.0711,0,0,0.0467,0.0449,0.0446,0.042,0.041,0.0412,0.0398,0.039,0.0417,0.0446,0.0537,0.059,0.0627,0.0714,0.0756,0.0733,0.0853,0.0829,0.0838,0.084,0.085,0.0865,0.0878,0.0713,0.0712,0.0712,0,0,0.0447,0.0454,0.0441,0.0437,0.0422,0.0425,0.0438,0.0442,0.0471,0.0545,0.0587,0.0679,0.0759,0.0808,0.0839,0.0932,0.0908,0.0945,0.1023,0.1037,0.105,0.106,0.1046,0.1054,0.0957,0.0957,0.0958,0,0.0448,0.0439,0.043,0.0421,0.0434,0.0446,0.0458,0.0479,0.0527,0.0575,0.0586,0.0738,0.0795,0.0903,0.0959,0.0962,0.0956,0.0979,0.1054,0.1064,0.1073,0.1055,0.1063,0.0964,0.0963,0.0963,0.0962,0,0.042,0.043,0.0425,0.0439,0.045,0.046,0.0493,0.0553,0.0614,0.0639,0.076,0.0833,0.0924,0.0964,0.1015,0.1123,0.1093,0.1065,0.1025,0.1096,0.1072,0.1078,0.0973,0.0971,0.0969,0.0967,0,0,0.0385,0.0405,0.0406,0.0437,0.0473,0.0481,0.056,0.0625,0.0695,0.0758,0.0857,0.0983,0.1033,0.1071,0.1136,0.1184,0.1278,0.1187,0.1185,0.1182,0.1302,0.1259,0.126,0.1278,0.128,0.1281,0.1259,0,0.0377,0.0377,0.0398,0.0449,0.0472,0.0541,0.0613,0.0681,0.0756,0.086,0.0935,0.1047,0.1063,0.1158,0.1203,0.1262,0.1301,0.1286,0.1224,0.1222,0.1184,0.1269,0.1287,0.1263,0.1265,0.1266,0.1266,0,0.0348,0.0363,0.0398,0.0489,0.0509,0.0561,0.0705,0.0766,0.0895,0.0962,0.1059,0.1118,0.1243,0.1243,0.1308,0.1303,0.1332,0.1345,0.1343,0.1262,0.1191,0.1175,0.1276,0.1275,0.1274,0.1274,0.1273,0,0.0329,0.0374,0.0417,0.0441,0.0535,0.061,0.0691,0.0811,0.0894,0.1052,0.1128,0.1213,0.1305,0.1319,0.1378,0.136,0.1424,0.1371,0.1332,0.1327,0.1312,0.13,0.1416,0.1416,0.1416,0.1416,0.1416,0,0.0317,0.0353,0.0424,0.045,0.0537,0.062,0.0745,0.0836,0.0993,0.1081,0.1191,0.1268,0.1344,0.139,0.1395,0.1384,0.1415,0.1364,0.1334,0.1363,0.1358,0.1315,0.1304,0.1415,0.1416,0.1416,0.1416,0,0.0285,0.0323,0.0378,0.0486,0.0525,0.0599,0.0774,0.0863,0.1012,0.1141,0.1211,0.1345,0.1398,0.1432,0.1478,0.1413,0.1404,0.1402,0.144,0.1409,0.128,0.1276,0.1308,0.1307,0.1306,0.1305,0.1304,0,0.0268,0.0289,0.038,0.0411,0.0469,0.0593,0.0678,0.0861,0.0935,0.1152,0.1187,0.1345,0.1408,0.14,0.1443,0.1419,0.1418,0.138,0.1334,0.131,0.1277,0.1274,0.1271,0.1302,0.1302,0.1302,0.1301,0,0.0243,0.0276,0.0312,0.0369,0.0454,0.0533,0.0657,0.0721,0.0919,0.1065,0.1174,0.126,0.1331,0.1356,0.1397,0.1365,0.1374,0.1367,0.1368,0.1324,0.1303,0.1271,0.1269,0.1297,0.1298,0.1298,0.1298,0,0.0217,0.0229,0.0271,0.0317,0.0399,0.0443,0.0531,0.0643,0.0764,0.0998,0.1025,0.1184,0.1314,0.1331,0.1337,0.1343,0.1299,0.1221,0.1228,0.1233,0.1226,0.1189,0.1143,0,0,0,0,0,0.019,0.0184,0.0217,0.0262,0.0337,0.0384,0.0491,0.0583,0.0771,0.0824,0.0938,0.1014,0.1117,0.1182,0.1169,0.1262,0.127,0.1237,0.1174,0.1275,0.128,0.1283,0,0,0,0,0,0,0.0163,0.0183,0.0188,0.0202,0.023,0.0313,0.0381,0.0501,0.0527,0.0722,0.0775,0.0938,0.1029,0.1124,0.115,0.1169,0.1101,0.134,0.1336,0.1273,0.1277,0.1281,0.1285,0,0,0,0,0]},{"header":{"parameterUnit":"m.s-1","parameterCategory":2,"la1":30.2991,"la2":30.254,"lo1":-89.0895,"lo2":-89.0444,"dy":0.0017,"dx":0.0017,"nx":28,"ny":28,"refTime":"2024-06-12T03:00:00:Z","depth":"4","parameterNumber":3,"parameterNumberName":"V-component_of_CURRENTS"},"data":[0,0,0,0,0,0,0,0,0,0,0,0,0,0,0,0,0,0,0,0,0,0,0,0,0,0,0,0,0,0,0,0,0,0,0,0,0,0,0,0,0,0,0,0,0,0,0,0,0,0,0,0,0,0,0,0,0,0,0.0402,0.0403,0,0.0471,0.0471,0.0472,0.0501,0.0501,0.0501,0.0501,0.0414,0.0412,0.0409,0,0,0,0,0,0,0,0,0,0,0,0,0,0.0217,0.0221,0.0402,0.0403,0.0404,0.0471,0.0471,0.0472,0.0501,0.0501,0.0501,0.0501,0.0415,0.0412,0.0409,0,0,0,0,0,0,0,0,0,0,0,0,0,0.029,0.0222,0.0402,0.0429,0.0432,0.047,0.0471,0.0472,0.0501,0.0501,0.0501,0.0501,0.0416,0.0412,0.0409,0.0383,0,0,0.0398,0.0396,0,0,0,0,0,0,0,0,0.0286,0.0297,0.0424,0.0427,0.0431,0.048,0.0375,0.0436,0.0501,0.0472,0.0501,0.0501,0.0423,0.0419,0.043,0.0379,0.0375,0.0397,0.0395,0.0394,0.0393,0,0,0,0,0,0,0,0.0281,0.0294,0.0427,0.0425,0.0429,0.041,0.0421,0.0386,0.0441,0.0474,0.0477,0.0489,0.0424,0.0434,0.0428,0.0374,0.0398,0.0394,0.0392,0.0391,0.0231,0.0229,0,0,0,0,0,0,0.0283,0.029,0.0424,0.0429,0.036,0.0414,0.0426,0.0462,0.0445,0.0444,0.0489,0.049,0.044,0.0432,0.0425,0.0394,0.0394,0.039,0.0388,0.0233,0.023,0.0228,0,0,0,0,0,0,0.0279,0.0295,0.0422,0.0361,0.0376,0.0418,0.0457,0.0463,0.0498,0.0458,0.0454,0.0521,0.044,0.043,0.0419,0.0391,0.0389,0.0385,0.0235,0.0232,0.0229,0.0332,0,0,0,0,0,0,0.0274,0.0294,0.0324,0.0362,0.038,0.0457,0.0457,0.0464,0.0505,0.0508,0.0483,0.0474,0.0439,0.0425,0.0416,0.0386,0.0383,0.0238,0.0234,0.023,0.0331,0.0332,0.0334,0,0,0,0,0,0.0267,0.0321,0.0326,0.0342,0.042,0.0458,0.0466,0.0492,0.0506,0.0524,0.0514,0.0476,0.039,0.0423,0.0412,0.038,0.024,0.0235,0.023,0.033,0.0332,0.0334,0,0,0,0,0,0,0.0264,0.033,0.0336,0.0409,0.0431,0.0464,0.0498,0.0509,0.052,0.0527,0.0488,0.0479,0.0439,0.0396,0.0432,0.0311,0.0292,0.0285,0.0371,0.0373,0.0374,0.0399,0.038,0,0,0,0,0,0.0274,0.0331,0.0368,0.0425,0.0444,0.0472,0.0495,0.0509,0.0523,0.0532,0.0516,0.0469,0.0406,0.0388,0.0331,0.03,0.0249,0.0252,0.0254,0.0256,0.0262,0.0156,0.015,0.0212,0.0212,0.0213,0,0,0.0289,0.0333,0.0365,0.0426,0.0454,0.0481,0.0488,0.0535,0.0546,0.0514,0.0536,0.0484,0.0396,0.0351,0.0325,0.032,0.0215,0.025,0.0254,0.0258,0.015,0.0145,0.014,0.0209,0.021,0.021,0,0,0.0337,0.0387,0.0439,0.0458,0.0502,0.0513,0.0531,0.0569,0.058,0.0587,0.0541,0.0497,0.0433,0.0367,0.0319,0.0292,0.0224,0.0244,0.0285,0.0183,0.0178,0.0173,0.0137,0.0127,0.0249,0.025,0.025,0,0.0347,0.042,0.0455,0.0494,0.0513,0.053,0.0562,0.0572,0.0597,0.0592,0.0599,0.0485,0.0433,0.0344,0.0334,0.0298,0.0248,0.0301,0.019,0.0183,0.0177,0.014,0.0129,0.0254,0.0253,0.0253,0.0253,0,0.0417,0.0466,0.0502,0.0551,0.0569,0.0608,0.0614,0.0633,0.0643,0.0631,0.0578,0.0518,0.0443,0.0401,0.0371,0.0275,0.0261,0.0208,0.0204,0.0178,0.014,0.0126,0.026,0.0259,0.0257,0.0256,0,0,0.0452,0.0536,0.0544,0.0566,0.0603,0.0624,0.0642,0.0647,0.0645,0.0638,0.0616,0.0523,0.0491,0.0432,0.0369,0.0298,0.0231,0.0249,0.0241,0.0248,0.0046,0.0063,0.005,0.0157,0.0154,0.0152,0.0055,0,0.0491,0.0569,0.0596,0.0644,0.0677,0.0682,0.0692,0.0687,0.067,0.0651,0.0578,0.0524,0.0496,0.0459,0.0384,0.0255,0.0193,0.0265,0.004,0.0035,0.0079,0.0033,0.0143,0.0045,0.0041,0.0039,0.0037,0,0.0537,0.0583,0.0648,0.0687,0.0702,0.073,0.0733,0.0741,0.0698,0.0678,0.0618,0.0554,0.0464,0.0434,0.024,0.0286,0.0179,0.0093,0.0086,0.0054,0.0024,0.0058,0.0012,0.0014,0.0016,0.0018,0.0019,0,0.0536,0.0609,0.0665,0.0681,0.0729,0.0757,0.0781,0.0757,0.0756,0.0697,0.0668,0.0553,0.0488,0.034,0.019,0.0198,-0.0023,-0.0049,-0.0127,-0.0124,-0.0149,-0.0143,-0.0202,-0.0201,-0.0201,-0.0201,-0.0201,0,0.056,0.06,0.068,0.0709,0.0755,0.0783,0.0819,0.0807,0.0792,0.0766,0.0688,0.0624,0.0452,0.0314,0.0183,0.0002,-0.0039,-0.0121,-0.0165,-0.01,-0.0088,-0.0155,-0.0149,-0.0205,-0.0204,-0.0203,-0.0202,0,0.0548,0.0608,0.0667,0.074,0.0764,0.08,0.0869,0.0881,0.0859,0.082,0.0802,0.0662,0.0483,0.0321,0.0074,-0.001,-0.0185,-0.0246,-0.0117,-0.0152,-0.0205,-0.0192,-0.0333,-0.0333,-0.0334,-0.0334,-0.0334,0,0.0553,0.059,0.0679,0.0718,0.0765,0.0835,0.0881,0.0912,0.0908,0.0831,0.0791,0.0634,0.0523,0.0214,0.0041,-0.0191,-0.0232,-0.0291,-0.0279,-0.0197,-0.0227,-0.0213,-0.02,-0.0335,-0.0335,-0.0336,-0.0336,0,0.0543,0.0586,0.0629,0.0716,0.0788,0.085,0.0911,0.0906,0.0912,0.0899,0.0762,0.0615,0.0412,0.0198,0.0021,-0.0152,-0.0232,-0.0297,-0.0297,-0.0286,-0.0203,-0.0228,-0.0215,-0.0337,-0.0337,-0.0337,-0.0337,0,0.0528,0.0551,0.0627,0.0688,0.0778,0.0828,0.0871,0.0875,0.0882,0.0799,0.0752,0.0559,0.0457,0.0215,0.0044,-0.0109,-0.0149,-0.0181,-0.0188,-0.0188,-0.0115,0.0014,-0.0099,0,0,0,0,0,0.0504,0.0529,0.0592,0.0669,0.076,0.0817,0.0864,0.0897,0.0898,0.0807,0.0784,0.0601,0.0348,0.023,0.0074,0.0024,-0.0179,-0.0161,-0.022,-0.0347,-0.0345,-0.0284,0,0,0,0,0,0,0.049,0.0546,0.0574,0.0644,0.0696,0.08,0.0834,0.0839,0.0783,0.0757,0.0615,0.0581,0.0323,0.0434,0.0074,0.0029,-0.0024,-0.0271,-0.0273,-0.0348,-0.0347,-0.0345,-0.0281,0,0,0,0,0]}]]